SCP
0 0 0 0 0 0 0 0 0 0 0 0 0 0 0 0 0 0 0 0 0 0 0 0 0 0 0 0 0 0 0 0 0 0 0 0 0 0 0 0 0 0 0
0 0 0 0 0 0 0 0 0 0 0 0 0 0 0 0 0 0 0 0 0 0 0 0 0 0 0 0 0 0 0 0 0 0 0 0 0 0 0 0 0 0 0
0 0 0 0 0 0 0 0 0 0 0 0 0 0 0 0 0 0 0 0 0 0 0 0 0 0 0 0 0 0 0 0 0 0 0 0 0 0 0 0 0 0 0
0 0 0 0 0 0 0 0 0 0 0 0 0 0 0 0 0 0 0 0 0 0 0 0 0 0 0 0 0 0 0 0 0 0 0 0 0 0 0 0 0 0 0
0 0 0 0 0 0 0 0 0 0 0 0 0 0 0 0 0 0 0 0 0 0 0 0 0 0 0 0 0 0 0 0 0 0 0 0 0 0 0 0 0 0 0
0 0 0 0 0 0 0 0 0 0 0 0 0 0 0 0 0 0 0 0 0 0 0 0 0 0 0 0 0 0 0 0 0 0 0 0 0 0 0 0 0 0 0
0 0 0 0 0 0 0 0 0 0 0 0 0 0 0 0 0 0 0 0 0 0 0 0 0 0 0 0 0 0 0 0 0 0 0 0 0 0 0 0 0 0 0
-0 0 0 0 0 0 0 0 0 0 0 0 0 0 0 0 0 0 0 0 0 0 0 0 0 0 0 0 0 0 0 0 0 0 0 0 0 0 0 0 0 0 0
0 0 0 0 0 0 0 0 0 0 0 0 0 0 0 0 0 0 0 0 0 0 0 0 0 0 0 0 0 0 0 0 0 0 0 0 0 0 0 0 0 0 0
0 0 0 0 0 0 0 0 0 0 0 0 0 0 0 0 0 0 0 0 0 0 0 0 0 0 0 0 0 0 0 0 0 0 0 0 0 0 0 0 0 0 0
0 0 0 0 0 0 0 0 0 0 0 0 0 0 0 0 0 0 0 0 0 0 0 0 0 0 0 0 0 0 0 0 0 0 0 0 0 0 0 0 0 0 0
0 0 0 0 0 0 0 0 0 0 0 0 0 0 0 0 0 0 0 0 0 0 0 0 0 0 0 0 0 0 0 0 0 0 0 0 0 0 0 0 0 0 0
0 0 0 0 0 0 0 0 0 0 0 0 0 0 0 0 0 0 0 0 0 0 0 0 0 0 0 0 0 0 0 0 0 0 0 0 0 0 0 0 0 0 0
0 0 0 0 0 0 0 0 0 0 0 0 0 0 0 0 0 0 0 0 0 0 0 0 0 0 0 0 0 0 0 0 0 0 0 0 0 0 0 0 0 0 0
0 0 0 0 0 0 0 0 0 0 0 0 0 0 0 0 0 0 0 0 0 0 0 0 0 0 0 0 0 0 0 0 0 0 0 0 0 0 0 0 0 0 0
0 0 0 0 0 0 0 0 0 0 0 0 0 0 0 0 0 0 0 0 0 0 0 0 0 0 0 0 0 0 0 0 0 0 0 0 0 0 0 0 0 0 0
0 0 0 0 0 0 0 0 0 0 0 0 0 0 0 0 0 0 0 0 0 0 0 0 0 0 0 0 0 0 0 0 0 0 0 0 0 0 0 0 0 0 0
0 0 0 0 0 0 0 0 0 0 0 0 0 0 0 0 0 0 0 0 0 0 0 0 0 0 0 0 0 0 0 0 0 0 0 0 0 0 0 0 0 0 0
0 0 0 0 0 0 0 0 0 0 0 0 0 0 0 0 0 0 0 0 0 0 0 0 0 0 0 0 0 0 0 0 0 0 0 0 0 0 0 0 0 0 0
0 0 0 0 0 0 0 0 0 0 0 0 0 0 0 0 0 0 0 0 0 0 0 0 0 0 0 0 0 0 0 0 0 0 0 0 0 0 0 0 0 0 0
0 0 0 0 0 0 0 0 0 0 0 0 0 0 0 0 0 0 0 0 0 0 0 0 0 0 0 0 0 0 0 0 0 0 0 0 0 0 0 0 0 0 0
0 0 0 0 0 0 0 0 0 0 0 0 0 0 0 0 0 0 0 0 0 0 0 0 0 0 0 0 0 0 0 0 0 0 0 0 0 0 0 0 0 0 0
0 0 0 0 0 0 0 0 0 0 0 0 0 0 0 0 0 0 0 0 0 0 0 0 0 0 0 0 0 0 0 0 0 0 0 0 0 0 0 0 0 0 0
0 0 0 0 0 0 0 0 0 0 0 0 0 0 0 0 0 0 0 0 0 0 0 0 0 0 0 0 0 0 0 0 0 0 0 0 0 0 0 0 0 0 0
0 0 0 0 0 0 0 0 0 0 0 0 0 0 0 0 0 0 0 0 0 0 0 0 0 0 0 0 0 0 0 0 0 0 0 0 0 0 0 0 0 0 0
0 0 0 0 0 0 0 0 0 0 0 0 0 0 0 0 0 0 0 0 0 0 0 0 0 0 0 0 0 0 0 0 0 0 0 0 0 0 0 0 0 0 0
Wind_Speed_500mb
47 50 56 60 61 62 62 63 61 59 60 60 61 65 67 74 74 77 82 81 79 77 88 87 86 82 84 82 70 66 59 60 49 49 57 53 57 54 52 46 36 27 31
42 45 49 52 56 58 56 54 54 56 57 57 58 60 60 61 70 76 78 76 75 88 81 84 79 82 80 72 68 61 60 54 54 43 56 62 48 56 49 43 34 36 33
34 35 39 43 47 48 48 50 52 53 55 56 58 60 60 60 62 67 70 74 74 75 78 81 82 81 77 72 63 61 57 48 50 51 52 48 50 52 57 47 41 46 37
31 33 36 39 41 42 42 46 49 50 54 55 56 57 58 58 61 67 71 72 76 80 77 74 74 76 73 69 69 66 61 55 62 54 44 50 49 57 53 46 50 42 39
28 32 36 39 42 44 45 47 48 51 53 54 57 58 60 61 59 60 67 73 74 71 69 68 66 64 60 64 66 63 53 64 67 53 58 52 57 62 59 53 43 41 39
32 36 38 41 43 48 49 51 52 53 54 56 60 61 62 63 60 63 67 71 72 72 69 66 63 61 64 56 54 41 53 71 56 61 58 60 58 47 56 51 40 44 45
32 36 41 46 49 50 52 56 61 59 58 60 61 64 65 64 59 61 65 69 72 71 67 64 63 67 76 62 58 58 68 55 54 45 44 50 48 51 52 49 43 45 44
37 43 47 49 54 55 57 59 63 67 66 67 67 66 67 66 61 66 69 68 68 68 68 68 70 77 67 73 69 77 75 52 48 50 54 40 46 44 46 40 39 44 46
33 39 44 53 58 58 62 60 61 68 72 71 68 69 69 65 61 64 69 69 71 70 70 73 77 75 76 75 69 78 69 63 53 49 44 57 61 53 51 49 50 48 49
45 46 46 43 49 61 62 61 59 63 67 68 69 67 66 68 64 68 72 73 74 73 74 77 82 78 78 71 79 83 69 62 55 51 56 60 60 59 57 53 49 52 51
43 44 43 46 49 54 56 57 57 60 64 66 67 66 67 69 69 70 72 75 77 78 80 81 85 80 75 74 70 59 62 54 47 51 54 56 61 63 61 57 54 52 51
41 41 42 44 47 50 52 51 52 55 61 63 65 68 69 70 71 74 70 76 73 81 86 81 87 74 73 65 72 68 54 49 43 47 54 60 68 68 65 59 57 54 52
43 41 37 37 38 39 41 41 43 46 53 57 61 65 67 67 70 72 68 69 76 84 82 81 82 79 71 72 84 69 56 58 51 45 47 50 58 60 61 60 59 59 59
41 42 38 34 31 29 29 31 36 38 43 47 50 54 58 63 66 65 66 65 76 79 77 74 75 72 76 72 78 71 62 61 58 53 49 43 47 55 59 61 62 62 66
43 40 37 28 23 21 20 21 24 27 32 36 38 41 45 52 52 50 51 60 71 82 72 68 69 77 83 74 80 79 72 68 64 55 53 50 49 50 53 58 62 66 72
46 41 35 28 21 17 18 22 26 25 26 31 35 36 38 39 36 34 32 35 52 77 78 66 69 74 80 74 77 81 82 74 67 61 58 60 60 62 60 60 61 69 73
50 45 42 35 26 24 25 26 30 28 32 31 30 32 32 35 32 31 27 26 35 57 72 74 68 74 78 75 69 75 82 72 69 68 68 71 69 69 67 70 75 76 77
47 47 46 40 33 27 25 26 29 31 33 32 28 27 29 29 25 20 19 22 32 53 65 66 65 65 66 67 63 61 66 67 68 71 65 64 71 75 71 76 77 78 75
47 45 42 42 33 29 29 29 30 28 29 30 30 31 32 31 27 23 20 28 36 44 58 56 59 57 52 53 57 61 57 58 63 61 66 58 53 56 62 66 70 72 72
46 43 39 38 37 34 27 26 26 26 27 29 30 28 27 31 32 34 31 31 39 34 38 64 60 61 67 63 51 48 50 54 61 65 60 55 52 52 55 55 58 61 65
42 42 38 38 37 35 31 27 27 26 25 25 26 27 21 19 15 25 33 33 36 38 38 38 39 43 54 56 55 54 53 51 50 47 49 52 51 53 52 53 57 61 62
34 34 33 31 28 29 30 28 27 25 21 20 23 24 21 21 20 22 27 36 40 40 42 43 43 44 45 46 49 50 52 54 56 56 54 54 53 53 55 56 60 63 62
30 26 24 27 31 32 32 31 27 26 27 27 27 27 26 27 29 30 33 35 35 36 37 37 38 38 39 41 43 45 48 52 56 57 57 57 59 60 59 60 62 63 65
21 21 22 23 28 30 31 30 29 29 29 30 30 30 29 29 29 31 33 35 38 40 42 44 46 48 50 52 54 57 58 60 60 61 62 64 64 64 66 67 69 68 65
18 17 17 16 19 21 22 21 20 21 22 23 22 22 21 21 21 21 21 22 24 26 28 30 32 33 35 37 39 42 46 49 50 51 52 54 57 59 60 60 58 55 54
11 9 8 7 9 10 11 10 10 10 11 12 12 12 12 12 14 16 18 20 22 24 27 30 32 34 36 38 40 42 43 44 45 45 45 46 46 46 46 45 44 42 40
Wind_Direction_500mb
254 249 249 249 252 253 254 254 250 246 245 247 249 247 242 240 240 241 244 246 247 249 253 249 248 243 237 233 230 233 240 240 241 238 230 219 211 213 215 217 226 242 253
261 255 252 252 253 254 255 252 248 248 249 250 248 247 245 242 239 241 244 244 249 249 248 247 243 240 235 229 227 232 227 230 236 236 224 208 205 214 215 220 229 249 255
266 260 255 253 255 257 256 255 253 252 251 250 247 247 247 245 243 241 243 245 247 251 250 248 243 235 228 227 225 213 223 218 231 224 205 201 211 213 218 215 240 235 265
280 276 268 262 261 260 258 256 257 257 256 253 252 251 250 246 249 248 245 245 249 249 248 245 240 236 234 225 217 220 213 214 218 205 207 217 221 218 211 236 225 243 247
290 293 292 281 271 268 264 261 260 259 259 258 256 253 249 251 251 253 249 247 248 245 243 238 235 232 230 222 227 228 216 211 207 206 214 221 214 211 231 217 230 238 246
279 292 301 294 285 276 270 267 264 261 258 257 258 258 254 253 253 254 250 249 249 246 242 234 226 223 219 226 225 215 222 205 208 216 221 216 226 235 217 221 231 237 245
289 290 291 292 291 287 281 275 271 270 270 268 263 260 256 253 253 256 256 252 249 245 237 231 226 215 215 220 206 206 204 207 220 234 248 250 229 215 219 228 233 243 255
291 290 285 282 282 280 276 273 273 272 271 270 267 262 258 253 251 254 254 250 245 239 234 230 222 226 222 211 210 206 206 215 233 244 242 231 216 223 229 237 243 246 255
308 300 293 287 283 280 277 276 273 270 269 269 269 264 259 256 249 255 253 247 242 237 229 225 225 228 219 210 217 212 216 226 237 240 225 215 217 225 230 233 241 252 261
311 304 292 278 282 283 277 273 268 265 267 267 267 263 260 255 247 253 251 248 242 235 228 229 225 227 214 220 226 220 224 226 239 233 224 223 227 232 237 239 246 253 262
313 309 305 299 290 282 278 271 268 265 264 264 263 261 258 254 248 250 249 249 242 236 233 230 221 214 219 238 228 220 224 236 241 232 232 233 237 240 241 245 250 255 263
320 311 306 303 298 287 280 275 270 265 262 261 261 259 254 251 248 249 248 247 241 238 239 232 222 226 229 225 214 222 238 245 243 234 225 233 240 242 244 253 262 261 267
330 324 313 305 299 290 282 277 270 266 262 261 260 261 261 257 252 249 243 237 242 239 239 236 230 236 233 226 220 230 231 239 241 240 237 242 249 255 253 256 260 263 268
321 325 325 318 308 299 290 285 277 271 268 267 266 265 266 264 263 258 252 234 237 247 244 239 227 237 234 244 225 225 239 245 246 241 244 256 258 256 256 255 258 262 268
307 308 310 314 316 319 314 304 294 288 278 273 272 272 273 274 277 277 267 250 235 240 245 240 235 227 232 237 227 224 235 246 246 249 253 256 266 262 263 258 259 261 266
297 289 291 289 292 305 313 313 312 304 286 277 272 266 270 273 272 272 264 255 239 234 238 236 228 233 238 232 235 239 238 241 246 252 263 260 264 271 268 268 267 268 270
291 285 279 271 266 278 289 296 300 297 290 279 274 276 276 274 272 267 264 246 227 228 240 241 239 239 241 239 242 246 246 242 249 253 266 264 263 268 271 272 274 273 275
285 283 278 269 263 266 277 281 283 288 288 285 282 282 275 271 267 264 248 226 226 221 230 241 245 246 245 244 245 250 254 250 248 254 268 269 264 261 268 271 272 274 276
286 280 273 267 252 258 275 278 282 281 282 285 281 274 269 261 256 265 256 239 231 227 219 235 247 250 252 250 257 261 264 258 257 261 274 272 270 267 268 270 272 273 276
284 280 271 264 267 269 268 273 276 279 279 279 277 278 271 261 251 239 248 242 256 256 243 232 237 246 254 262 262 261 265 268 271 275 274 273 275 273 273 275 276 276 277
283 278 274 267 267 263 260 262 267 267 267 267 269 268 268 269 263 248 240 247 250 255 258 260 258 254 252 255 260 264 268 270 270 272 271 273 274 273 277 278 277 277 277
284 276 269 263 263 264 268 268 269 266 260 257 261 263 258 253 251 248 245 245 248 251 254 255 255 254 254 255 257 258 261 264 267 269 272 275 275 275 276 275 273 273 274
286 275 261 258 260 259 258 255 253 255 254 252 253 254 254 247 242 241 241 242 244 243 244 245 246 248 250 251 252 254 252 253 256 260 262 262 263 267 269 270 270 270 273
295 286 276 265 259 257 257 254 251 248 248 250 251 256 254 252 250 249 250 250 252 254 257 260 262 263 264 265 265 265 265 265 265 265 267 268 270 271 270 269 270 272 272
301 295 286 276 267 262 258 255 251 249 247 249 250 248 251 255 256 255 255 256 261 267 272 274 274 273 272 272 272 273 274 275 275 275 275 274 272 270 268 267 268 268 267
305 298 288 279 267 256 251 244 239 233 228 231 234 235 241 253 266 272 269 265 264 266 270 272 275 277 278 279 278 279 279 280 280 279 276 273 272 270 268 267 266 265 266
Wind_Speed_850mb
47 50 56 60 61 62 62 63 61 59 60 60 61 65 67 74 74 77 82 81 79 77 88 87 86 82 84 82 70 66 59 60 49 49 57 53 57 54 52 46 36 27 31
42 45 49 52 56 58 56 54 54 56 57 57 58 60 60 61 70 76 78 76 75 88 81 84 79 82 80 72 68 61 60 54 54 43 56 62 48 56 49 43 34 36 33
34 35 39 43 47 48 48 50 52 53 55 56 58 60 60 60 62 67 70 74 74 75 78 81 82 81 77 72 63 61 57 48 50 51 52 48 50 52 57 47 41 46 37
31 33 36 39 41 42 42 46 49 50 54 55 56 57 58 58 61 67 71 72 76 80 77 74 74 76 73 69 69 66 61 55 62 54 44 50 49 57 53 46 50 42 39
28 32 36 39 42 44 45 47 48 51 53 54 57 58 60 61 59 60 67 73 74 71 69 68 66 64 60 64 66 63 53 64 67 53 58 52 57 62 59 53 43 41 39
32 36 38 41 43 48 49 51 52 53 54 56 60 61 62 63 60 63 67 71 72 72 69 66 63 61 64 56 54 41 53 71 56 61 58 60 58 47 56 51 40 44 45
32 36 41 46 49 50 52 56 61 59 58 60 61 64 65 64 59 61 65 69 72 71 67 64 63 67 76 62 58 58 68 55 54 45 44 50 48 51 52 49 43 45 44
37 43 47 49 54 55 57 59 63 67 66 67 67 66 67 66 61 66 69 68 68 68 68 68 70 77 67 73 69 77 75 52 48 50 54 40 46 44 46 40 39 44 46
33 39 44 53 58 58 62 60 61 68 72 71 68 69 69 65 61 64 69 69 71 70 70 73 77 75 76 75 69 78 69 63 53 49 44 57 61 53 51 49 50 48 49
45 46 46 43 49 61 62 61 59 63 67 68 69 67 66 68 64 68 72 73 74 73 74 77 82 78 78 71 79 83 69 62 55 51 56 60 60 59 57 53 49 52 51
43 44 43 46 49 54 56 57 57 60 64 66 67 66 67 69 69 70 72 75 77 78 80 81 85 80 75 74 70 59 62 54 47 51 54 56 61 63 61 57 54 52 51
41 41 42 44 47 50 52 51 52 55 61 63 65 68 69 70 71 74 70 76 73 81 86 81 87 74 73 65 72 68 54 49 43 47 54 60 68 68 65 59 57 54 52
43 41 37 37 38 39 41 41 43 46 53 57 61 65 67 67 70 72 68 69 76 84 82 81 82 79 71 72 84 69 56 58 51 45 47 50 58 60 61 60 59 59 59
41 42 38 34 31 29 29 31 36 38 43 47 50 54 58 63 66 65 66 65 76 79 77 74 75 72 76 72 78 71 62 61 58 53 49 43 47 55 59 61 62 62 66
43 40 37 28 23 21 20 21 24 27 32 36 38 41 45 52 52 50 51 60 71 82 72 68 69 77 83 74 80 79 72 68 64 55 53 50 49 50 53 58 62 66 72
46 41 35 28 21 17 18 22 26 25 26 31 35 36 38 39 36 34 32 35 52 77 78 66 69 74 80 74 77 81 82 74 67 61 58 60 60 62 60 60 61 69 73
50 45 42 35 26 24 25 26 30 28 32 31 30 32 32 35 32 31 27 26 35 57 72 74 68 74 78 75 69 75 82 72 69 68 68 71 69 69 67 70 75 76 77
47 47 46 40 33 27 25 26 29 31 33 32 28 27 29 29 25 20 19 22 32 53 65 66 65 65 66 67 63 61 66 67 68 71 65 64 71 75 71 76 77 78 75
47 45 42 42 33 29 29 29 30 28 29 30 30 31 32 31 27 23 20 28 36 44 58 56 59 57 52 53 57 61 57 58 63 61 66 58 53 56 62 66 70 72 72
46 43 39 38 37 34 27 26 26 26 27 29 30 28 27 31 32 34 31 31 39 34 38 64 60 61 67 63 51 48 50 54 61 65 60 55 52 52 55 55 58 61 65
42 42 38 38 37 35 31 27 27 26 25 25 26 27 21 19 15 25 33 33 36 38 38 38 39 43 54 56 55 54 53 51 50 47 49 52 51 53 52 53 57 61 62
34 34 33 31 28 29 30 28 27 25 21 20 23 24 21 21 20 22 27 36 40 40 42 43 43 44 45 46 49 50 52 54 56 56 54 54 53 53 55 56 60 63 62
30 26 24 27 31 32 32 31 27 26 27 27 27 27 26 27 29 30 33 35 35 36 37 37 38 38 39 41 43 45 48 52 56 57 57 57 59 60 59 60 62 63 65
21 21 22 23 28 30 31 30 29 29 29 30 30 30 29 29 29 31 33 35 38 40 42 44 46 48 50 52 54 57 58 60 60 61 62 64 64 64 66 67 69 68 65
18 17 17 16 19 21 22 21 20 21 22 23 22 22 21 21 21 21 21 22 24 26 28 30 32 33 35 37 39 42 46 49 50 51 52 54 57 59 60 60 58 55 54
11 9 8 7 9 10 11 10 10 10 11 12 12 12 12 12 14 16 18 20 22 24 27 30 32 34 36 38 40 42 43 44 45 45 45 46 46 46 46 45 44 42 40
Wind_Direction_850mb
254 249 249 249 252 253 254 254 250 246 245 247 249 247 242 240 240 241 244 246 247 249 253 249 248 243 237 233 230 233 240 240 241 238 230 219 211 213 215 217 226 242 253
261 255 252 252 253 254 255 252 248 248 249 250 248 247 245 242 239 241 244 244 249 249 248 247 243 240 235 229 227 232 227 230 236 236 224 208 205 214 215 220 229 249 255
266 260 255 253 255 257 256 255 253 252 251 250 247 247 247 245 243 241 243 245 247 251 250 248 243 235 228 227 225 213 223 218 231 224 205 201 211 213 218 215 240 235 265
280 276 268 262 261 260 258 256 257 257 256 253 252 251 250 246 249 248 245 245 249 249 248 245 240 236 234 225 217 220 213 214 218 205 207 217 221 218 211 236 225 243 247
290 293 292 281 271 268 264 261 260 259 259 258 256 253 249 251 251 253 249 247 248 245 243 238 235 232 230 222 227 228 216 211 207 206 214 221 214 211 231 217 230 238 246
279 292 301 294 285 276 270 267 264 261 258 257 258 258 254 253 253 254 250 249 249 246 242 234 226 223 219 226 225 215 222 205 208 216 221 216 226 235 217 221 231 237 245
289 290 291 292 291 287 281 275 271 270 270 268 263 260 256 253 253 256 256 252 249 245 237 231 226 215 215 220 206 206 204 207 220 234 248 250 229 215 219 228 233 243 255
291 290 285 282 282 280 276 273 273 272 271 270 267 262 258 253 251 254 254 250 245 239 234 230 222 226 222 211 210 206 206 215 233 244 242 231 216 223 229 237 243 246 255
308 300 293 287 283 280 277 276 273 270 269 269 269 264 259 256 249 255 253 247 242 237 229 225 225 228 219 210 217 212 216 226 237 240 225 215 217 225 230 233 241 252 261
311 304 292 278 282 283 277 273 268 265 267 267 267 263 260 255 247 253 251 248 242 235 228 229 225 227 214 220 226 220 224 226 239 233 224 223 227 232 237 239 246 253 262
313 309 305 299 290 282 278 271 268 265 264 264 263 261 258 254 248 250 249 249 242 236 233 230 221 214 219 238 228 220 224 236 241 232 232 233 237 240 241 245 250 255 263
320 311 306 303 298 287 280 275 270 265 262 261 261 259 254 251 248 249 248 247 241 238 239 232 222 226 229 225 214 222 238 245 243 234 225 233 240 242 244 253 262 261 267
330 324 313 305 299 290 282 277 270 266 262 261 260 261 261 257 252 249 243 237 242 239 239 236 230 236 233 226 220 230 231 239 241 240 237 242 249 255 253 256 260 263 268
321 325 325 318 308 299 290 285 277 271 268 267 266 265 266 264 263 258 252 234 237 247 244 239 227 237 234 244 225 225 239 245 246 241 244 256 258 256 256 255 258 262 268
307 308 310 314 316 319 314 304 294 288 278 273 272 272 273 274 277 277 267 250 235 240 245 240 235 227 232 237 227 224 235 246 246 249 253 256 266 262 263 258 259 261 266
297 289 291 289 292 305 313 313 312 304 286 277 272 266 270 273 272 272 264 255 239 234 238 236 228 233 238 232 235 239 238 241 246 252 263 260 264 271 268 268 267 268 270
291 285 279 271 266 278 289 296 300 297 290 279 274 276 276 274 272 267 264 246 227 228 240 241 239 239 241 239 242 246 246 242 249 253 266 264 263 268 271 272 274 273 275
285 283 278 269 263 266 277 281 283 288 288 285 282 282 275 271 267 264 248 226 226 221 230 241 245 246 245 244 245 250 254 250 248 254 268 269 264 261 268 271 272 274 276
286 280 273 267 252 258 275 278 282 281 282 285 281 274 269 261 256 265 256 239 231 227 219 235 247 250 252 250 257 261 264 258 257 261 274 272 270 267 268 270 272 273 276
284 280 271 264 267 269 268 273 276 279 279 279 277 278 271 261 251 239 248 242 256 256 243 232 237 246 254 262 262 261 265 268 271 275 274 273 275 273 273 275 276 276 277
283 278 274 267 267 263 260 262 267 267 267 267 269 268 268 269 263 248 240 247 250 255 258 260 258 254 252 255 260 264 268 270 270 272 271 273 274 273 277 278 277 277 277
284 276 269 263 263 264 268 268 269 266 260 257 261 263 258 253 251 248 245 245 248 251 254 255 255 254 254 255 257 258 261 264 267 269 272 275 275 275 276 275 273 273 274
286 275 261 258 260 259 258 255 253 255 254 252 253 254 254 247 242 241 241 242 244 243 244 245 246 248 250 251 252 254 252 253 256 260 262 262 263 267 269 270 270 270 273
295 286 276 265 259 257 257 254 251 248 248 250 251 256 254 252 250 249 250 250 252 254 257 260 262 263 264 265 265 265 265 265 265 265 267 268 270 271 270 269 270 272 272
301 295 286 276 267 262 258 255 251 249 247 249 250 248 251 255 256 255 255 256 261 267 272 274 274 273 272 272 272 273 274 275 275 275 275 274 272 270 268 267 268 268 267
305 298 288 279 267 256 251 244 239 233 228 231 234 235 241 253 266 272 269 265 264 266 270 272 275 277 278 279 278 279 279 280 280 279 276 273 272 270 268 267 266 265 266